,,PA_Meas_PMT16A,,PR_Meas_QMR101_102,,RH_Meas_QMH101,,SR_Meas_QMS101,,TA_Meas_QMH101,,GenWind,,GenWind,
time,status,PA,status,PR,status,RH,status,SR,status,TA,status,DirAvg,status,SpdAvg,
2016-05-19, 08:07:04,VALID,918.333,VALID,0,INVALID,112.918,VALID,89.7134,VALID,22.3754,VALID,343,VALID,0.00260417,
2016-05-19, 08:12:04,VALID,918.475,VALID,0,INVALID,113.002,VALID,108.73,VALID,22.434,VALID,43,VALID,0,
2016-05-19, 08:13:04,VALID,918.474,VALID,0,INVALID,112.956,VALID,106.044,VALID,22.4925,VALID,33,VALID,0,
2016-05-19, 08:14:04,VALID,918.482,VALID,0,INVALID,112.994,VALID,116.789,VALID,22.5316,VALID,16,VALID,0,
2016-05-19, 08:15:04,VALID,918.489,VALID,0,INVALID,112.971,VALID,113.35,VALID,22.5706,VALID,15,VALID,0,
2016-05-19, 08:19:04,VALID,918.546,VALID,0,INVALID,113.002,VALID,126.351,VALID,22.8243,VALID,12,VALID,0,
2016-05-19, 08:20:04,VALID,918.567,VALID,0,INVALID,113.124,VALID,146.657,VALID,22.8261,VALID,51,VALID,0,
2016-05-19, 08:21:04,VALID,918.552,VALID,0,INVALID,113.177,VALID,121.086,VALID,22.8421,VALID,17,VALID,0,
2016-05-19, 08:23:04,VALID,918.556,VALID,0,INVALID,113.322,VALID,127.533,VALID,22.8243,VALID,291,VALID,0,
2016-05-19, 08:24:04,VALID,918.559,VALID,0,INVALID,113.253,VALID,138.384,VALID,22.7658,VALID,11,VALID,1.51875,
2016-05-19, 08:25:04,VALID,918.552,VALID,0,INVALID,113.238,VALID,127.962,VALID,22.686,VALID,8,VALID,0.405078,
2016-05-19, 08:26:04,VALID,918.568,VALID,0,INVALID,113.231,VALID,119.045,VALID,22.7267,VALID,39,VALID,0,
2016-05-19, 08:36:04,VALID,918.685,VALID,0,INVALID,113.124,VALID,84.019,VALID,22.6114,INVALID,360,INVALID,0,
2016-05-19, 08:39:04,VALID,918.706,VALID,0,INVALID,113.124,VALID,101.424,VALID,22.5121,VALID,337,VALID,0,
2016-05-19, 08:41:04,VALID,918.754,VALID,0,INVALID,113.101,VALID,122.053,VALID,22.4535,VALID,14,VALID,0,
2016-05-19, 08:42:04,VALID,918.756,VALID,0,INVALID,113.131,VALID,132.045,VALID,22.4518,VALID,20,VALID,0,
2016-05-19, 08:43:04,VALID,918.764,VALID,0,INVALID,113.177,VALID,141.285,VALID,22.4535,VALID,321,VALID,0,
2016-05-19, 08:44:04,VALID,918.743,VALID,0,INVALID,113.177,VALID,154.715,VALID,22.473,VALID,29,VALID,0,
2016-05-19, 08:45:04,VALID,918.729,VALID,0,INVALID,113.192,VALID,184.154,VALID,22.5121,VALID,8,VALID,0,
2016-05-19, 08:46:04,VALID,918.75,VALID,0,INVALID,113.177,VALID,282.893,VALID,22.4925,VALID,39,VALID,0.763281,
2016-05-19, 08:47:04,VALID,918.723,VALID,0,INVALID,113.192,VALID,410.533,VALID,22.6292,VALID,8,VALID,0,
2016-05-19, 08:48:04,VALID,918.734,VALID,0,INVALID,113.192,VALID,496.915,VALID,22.7463,VALID,18,VALID,0,
2016-05-19, 08:49:04,VALID,918.747,VALID,0,INVALID,113.025,VALID,536.776,VALID,22.9805,VALID,33,VALID,0,
2016-05-19, 08:50:04,VALID,918.751,VALID,0,INVALID,112.651,VALID,294.819,VALID,23.1952,VALID,8,VALID,0,
2016-05-19, 08:51:04,VALID,918.707,VALID,0,INVALID,111.698,VALID,341.018,VALID,23.3319,VALID,4,VALID,0,
2016-05-19, 08:52:04,VALID,918.761,VALID,0,INVALID,110.966,VALID,428.046,VALID,23.4277,VALID,289,VALID,0,
2016-05-19, 08:53:04,VALID,918.78,VALID,0,INVALID,109.571,VALID,294.066,VALID,23.488,VALID,305,VALID,0,
2016-05-19, 08:54:04,VALID,918.758,VALID,0,VALID,104,VALID,176.311,VALID,23.4863,VALID,297,VALID,0,
2016-05-19, 08:55:04,VALID,918.777,VALID,0,INVALID,109.152,VALID,140.533,VALID,23.4863,VALID,311,VALID,0,
2016-05-19, 08:56:04,VALID,918.742,VALID,0,VALID,104,VALID,131.186,VALID,23.4082,VALID,285,VALID,0,
2016-05-19, 08:57:04,VALID,918.762,VALID,0,INVALID,109.457,VALID,138.169,VALID,23.4082,VALID,354,VALID,0,
2016-05-19, 08:58:04,VALID,918.718,VALID,0,VALID,104,VALID,170.079,VALID,23.4472,VALID,320,VALID,0,
2016-05-19, 08:59:04,VALID,918.75,VALID,0,VALID,104,VALID,176.311,VALID,23.4472,VALID,319,VALID,0,
2016-05-19, 09:00:04,VALID,918.738,VALID,0,VALID,104,VALID,158.153,VALID,23.4667,VALID,320,VALID,0,
2016-05-19, 09:01:04,VALID,918.743,VALID,0,INVALID,109.51,VALID,143.541,VALID,23.5448,VALID,25,VALID,0,
2016-05-19, 09:02:04,VALID,918.744,VALID,0,INVALID,110.09,VALID,138.169,VALID,23.5253,VALID,5,VALID,0,
2016-05-19, 09:03:04,VALID,918.728,VALID,0,INVALID,109.427,VALID,152.137,VALID,23.3887,VALID,25,VALID,0,
2016-05-19, 09:04:04,VALID,918.756,VALID,0,INVALID,110.669,VALID,167.716,VALID,23.2911,VALID,359,VALID,0,
2016-05-19, 09:05:04,VALID,918.724,VALID,0,INVALID,110.837,VALID,184.799,VALID,23.2325,VALID,355,VALID,0,
2016-05-19, 09:06:04,VALID,918.733,VALID,0,INVALID,110.73,VALID,214.775,VALID,23.1331,VALID,330,VALID,0,
2016-05-19, 09:07:04,VALID,918.71,VALID,0,INVALID,111.325,VALID,234.651,VALID,23.1171,VALID,338,VALID,0,
2016-05-19, 09:08:04,VALID,918.716,VALID,0,INVALID,111.843,VALID,249.049,VALID,23.1367,VALID,2,VALID,0,
2016-05-19, 09:09:04,VALID,918.694,VALID,0,INVALID,111.561,VALID,242.924,VALID,23.1349,VALID,28,VALID,0,
2016-05-19, 09:10:04,VALID,918.681,VALID,0,INVALID,111.142,VALID,242.71,VALID,23.1562,VALID,348,VALID,0,
2016-05-19, 09:11:04,VALID,918.658,VALID,0,INVALID,111.081,VALID,242.602,VALID,23.1935,VALID,20,VALID,0.727734,
2016-05-19, 09:12:04,VALID,918.681,VALID,0,INVALID,111.081,VALID,254.85,VALID,23.1527,VALID,351,VALID,0,
2016-05-19, 09:13:04,VALID,918.68,VALID,0,INVALID,111.149,VALID,266.239,VALID,23.1739,VALID,16,VALID,0.133984,
2016-05-19, 09:14:04,VALID,918.729,VALID,0,INVALID,110.654,VALID,331.671,VALID,23.1349,VALID,11,VALID,0,
2016-05-19, 09:15:04,VALID,918.726,VALID,0,INVALID,110.745,VALID,473.493,VALID,23.213,VALID,23,VALID,0,
2016-05-19, 09:16:04,VALID,918.709,VALID,0,INVALID,110.883,VALID,547.305,VALID,23.3691,VALID,10,VALID,0,
2016-05-19, 09:17:04,VALID,918.737,VALID,0,INVALID,111.157,VALID,664.953,VALID,23.5821,VALID,333,VALID,0,
2016-05-19, 09:18:04,VALID,918.776,VALID,0,INVALID,110.959,VALID,631.002,VALID,23.8749,VALID,22,VALID,1.12578,
2016-05-19, 09:19:04,VALID,918.793,VALID,0,VALID,104,VALID,624.77,VALID,23.953,VALID,16,VALID,1.16953,
2016-05-19, 09:20:04,VALID,918.847,VALID,0,VALID,104,VALID,628.316,VALID,24.1287,VALID,22,VALID,0.108203,
2016-05-19, 09:21:04,VALID,918.864,VALID,0,VALID,104,VALID,420.525,VALID,24.2672,VALID,21,VALID,0,
2016-05-19, 09:22:04,VALID,918.884,VALID,0,VALID,104,VALID,605.538,VALID,24.2477,VALID,13,VALID,0,
2016-05-19, 09:23:04,VALID,918.917,VALID,0,VALID,104,VALID,615.423,VALID,24.3453,VALID,44,VALID,0,
2016-05-19, 09:24:04,VALID,918.929,VALID,0,VALID,102.665,VALID,620.795,VALID,24.5192,VALID,354,VALID,0,
2016-05-19, 09:25:04,VALID,918.945,VALID,0,VALID,102.367,VALID,633.151,VALID,24.7554,VALID,358,VALID,0,
2016-05-19, 09:26:04,VALID,918.936,VALID,0,VALID,101.33,VALID,648.3,VALID,25.0874,VALID,37,VALID,0,
2016-05-19, 09:27:04,VALID,918.956,VALID,0,VALID,89.8038,VALID,667.424,VALID,25.478,VALID,3,VALID,0,
2016-05-19, 09:28:04,VALID,918.932,VALID,0,VALID,79.4817,VALID,702.987,VALID,25.8277,VALID,53,VALID,0,
2016-05-19, 09:29:04,VALID,918.919,VALID,0,VALID,77.2786,VALID,717.385,VALID,25.9058,VALID,37,VALID,0.30625,
2016-05-19, 09:30:04,VALID,918.886,VALID,0,VALID,77.8351,VALID,745.319,VALID,25.6909,VALID,55,VALID,0,
2016-05-19, 09:31:04,VALID,918.862,VALID,0,VALID,80.6939,VALID,748.542,VALID,25.5523,VALID,69,VALID,0,
2016-05-19, 09:32:04,VALID,918.852,VALID,0,VALID,82.1576,VALID,726.41,VALID,25.5523,VALID,19,VALID,0,
2016-05-19, 09:33:04,VALID,918.85,VALID,0,VALID,81.1131,VALID,724.583,VALID,25.6909,VALID,96,VALID,0,
2016-05-19, 09:34:04,VALID,918.801,VALID,0,VALID,81.2504,VALID,711.583,VALID,25.8843,VALID,43,VALID,0,
2016-05-19, 09:35:04,VALID,918.742,VALID,0,VALID,78.9328,VALID,740.699,VALID,26.1793,VALID,3,VALID,0,
2016-05-19, 09:36:04,VALID,918.756,VALID,0,VALID,79.9468,VALID,776.477,VALID,26.2183,VALID,85,VALID,0,
2016-05-19, 09:37:04,VALID,918.776,VALID,0,VALID,78.2925,VALID,780.453,VALID,26.1597,VALID,285,VALID,0,
2016-05-19, 09:38:04,VALID,918.766,VALID,0,VALID,76.3485,VALID,766.7,VALID,25.9624,VALID,253,VALID,0,
2016-05-19, 09:39:04,VALID,918.757,VALID,0,VALID,77.5835,VALID,787.759,VALID,25.9038,VALID,249,VALID,0,
2016-05-19, 09:40:04,VALID,918.74,VALID,0,VALID,77.3929,VALID,714.161,VALID,25.982,VALID,286,VALID,0.0148437,
2016-05-19, 09:41:04,VALID,918.74,VALID,0,VALID,77.9266,VALID,668.606,VALID,26.0601,VALID,291,VALID,0.003125,
2016-05-19, 09:42:04,VALID,918.717,VALID,0,VALID,78.5517,VALID,458.022,VALID,25.982,VALID,212,VALID,0.217187,
2016-05-19, 09:43:04,VALID,918.743,VALID,0,VALID,79.8172,VALID,484.237,VALID,26.021,VALID,297,VALID,0,
2016-05-19, 09:44:04,VALID,918.737,VALID,0,VALID,77.3396,VALID,491.221,VALID,25.9995,VALID,286,VALID,0.429688,
2016-05-19, 09:45:04,VALID,918.739,VALID,0,VALID,78.1553,VALID,536.776,VALID,25.8433,VALID,282,VALID,0,
2016-05-19, 09:46:04,VALID,918.725,VALID,0,VALID,78.5364,VALID,477.468,VALID,25.8628,VALID,257,VALID,0,
2016-05-19, 09:47:04,VALID,918.712,VALID,0,VALID,78.5593,VALID,486.279,VALID,25.9604,VALID,312,VALID,0,
2016-05-19, 09:48:04,VALID,918.735,VALID,0,VALID,78.5669,VALID,485.634,VALID,26.0581,VALID,243,VALID,0,
2016-05-19, 09:49:04,VALID,918.706,VALID,0,VALID,76.7983,VALID,453.939,VALID,26.2164,VALID,242,VALID,0,
2016-05-19, 09:50:04,VALID,918.732,VALID,0,VALID,76.844,VALID,559.661,VALID,26.0796,VALID,251,VALID,1.06875,
2016-05-19, 09:51:04,VALID,918.747,VALID,0,VALID,77.0727,VALID,620.043,VALID,25.7671,VALID,253,VALID,1.02422,
2016-05-19, 09:52:04,VALID,918.741,VALID,0,VALID,79.2073,VALID,521.519,VALID,25.687,VALID,259,VALID,1.20195,
2016-05-19, 09:53:04,VALID,918.755,VALID,0,VALID,79.2149,VALID,364.44,VALID,25.6284,VALID,253,VALID,0.746875,
2016-05-19, 09:54:04,VALID,918.727,VALID,0,VALID,79.4894,VALID,350.903,VALID,25.5894,VALID,249,VALID,0,
2016-05-19, 09:55:04,VALID,918.719,VALID,0,VALID,78.323,VALID,387.648,VALID,25.6284,VALID,237,VALID,0,
2016-05-19, 09:56:04,VALID,918.739,VALID,0,VALID,79.3369,VALID,593.827,VALID,25.7456,VALID,238,VALID,0,
2016-05-19, 09:57:04,VALID,918.726,VALID,0,VALID,78.666,VALID,841.372,VALID,25.9019,VALID,278,VALID,0,
2016-05-19, 09:58:04,VALID,918.714,VALID,0,VALID,77.8732,VALID,411.285,VALID,25.98,VALID,267,VALID,0.113672,
2016-05-19, 09:59:04,VALID,918.7,VALID,0,VALID,79.2759,VALID,380.449,VALID,25.98,VALID,250,VALID,0,
2016-05-19, 10:00:04,VALID,918.701,VALID,0,VALID,79.8248,VALID,347.142,VALID,25.9019,VALID,231,VALID,0.0113281,
2016-05-19, 10:01:04,VALID,918.695,VALID,0,VALID,80.7625,VALID,336.076,VALID,25.8823,VALID,231,VALID,0,
2016-05-19, 10:02:04,VALID,918.662,VALID,0,VALID,82.4396,VALID,339.407,VALID,26.0386,VALID,291,VALID,0,
2016-05-19, 10:03:04,VALID,918.673,VALID,0,VALID,79.6571,VALID,514.321,VALID,26.1558,VALID,350,VALID,0,
2016-05-19, 10:04:04,VALID,918.64,VALID,0,VALID,78.3992,VALID,423.318,VALID,26.2144,VALID,250,VALID,0.0601562,
2016-05-19, 10:05:04,VALID,918.636,VALID,0,VALID,79.3064,VALID,620.902,VALID,26.0952,VALID,255,VALID,0,
2016-05-19, 10:06:04,VALID,918.66,VALID,0,VALID,76.8517,VALID,500.676,VALID,26.0581,VALID,249,VALID,1.40742,
2016-05-19, 10:07:04,VALID,918.656,VALID,0,VALID,77.37,VALID,810.429,VALID,26.0366,VALID,217,VALID,0.0191406,
2016-05-19, 10:08:04,VALID,918.641,VALID,0,VALID,79.0396,VALID,782.172,VALID,26.2925,VALID,291,VALID,0.000390625,
2016-05-19, 10:09:04,VALID,918.614,VALID,0,VALID,79.0472,VALID,857.273,VALID,26.5074,VALID,359,VALID,0.625391,
2016-05-19, 10:10:04,VALID,918.567,VALID,0,VALID,77.0956,VALID,846.959,VALID,26.6246,VALID,286,VALID,0.237109,
2016-05-19, 10:11:04,VALID,918.594,VALID,0,VALID,77.7283,VALID,835.247,VALID,26.6832,VALID,335,VALID,0.00742187,
2016-05-19, 10:12:04,VALID,918.553,VALID,0,VALID,75.5404,VALID,575.347,VALID,26.5054,INVALID,360,VALID,0,
2016-05-19, 10:13:04,VALID,918.527,VALID,0,VALID,76.2265,VALID,828.909,VALID,26.4683,VALID,2,VALID,1.08633,
2016-05-19, 10:14:04,VALID,918.53,VALID,0,VALID,76.9889,VALID,847.603,VALID,26.4663,VALID,21,VALID,0.410547,
2016-05-19, 10:15:04,VALID,918.493,VALID,0,VALID,76.9355,VALID,863.182,VALID,26.7223,VALID,18,VALID,0.108203,
2016-05-19, 10:16:04,VALID,918.461,VALID,0,VALID,74.2673,VALID,685.582,VALID,26.896,VALID,268,VALID,0,
2016-05-19, 10:17:04,VALID,918.461,VALID,0,VALID,74.7019,VALID,432.021,VALID,26.7984,VALID,276,VALID,0,
2016-05-19, 10:18:04,VALID,918.407,VALID,0,VALID,76.4476,VALID,425.574,VALID,26.9351,VALID,15,VALID,0.466016,
2016-05-19, 10:19:04,VALID,918.379,VALID,0,VALID,73.2763,VALID,526.139,VALID,26.896,VALID,354,VALID,1.01328,
2016-05-19, 10:20:04,VALID,918.305,VALID,0,VALID,74.5723,VALID,459.526,VALID,26.8179,VALID,14,VALID,2.25977,
2016-05-19, 10:21:04,VALID,918.337,VALID,0,VALID,74.6561,VALID,421.169,VALID,26.7398,VALID,346,VALID,0.625391,
2016-05-19, 10:22:04,VALID,918.299,VALID,0,VALID,74.8086,VALID,620.473,VALID,26.4663,VALID,291,VALID,0.595312,
2016-05-19, 10:23:04,VALID,918.207,VALID,0,VALID,77.9266,VALID,928.829,VALID,26.3686,VALID,23,VALID,2.28945,
2016-05-19, 10:24:04,VALID,918.206,VALID,0,VALID,77.1795,VALID,668.177,VALID,26.4468,VALID,26,VALID,0.730078,
2016-05-19, 10:25:04,VALID,918.206,VALID,0,VALID,76.1351,VALID,799.792,VALID,26.7573,VALID,2,VALID,0.809375,
2016-05-19, 10:26:04,VALID,918.19,VALID,0,VALID,75.0906,VALID,362.721,VALID,26.9958,VALID,9,VALID,0,
2016-05-19, 10:27:04,VALID,918.154,VALID,0,VALID,73.9319,VALID,343.382,VALID,27.0935,VALID,297,VALID,0.00195313,
2016-05-19, 10:28:04,VALID,918.172,VALID,0,VALID,74.0767,VALID,758.427,VALID,27.15,VALID,297,VALID,0,
2016-05-19, 10:29:04,VALID,918.125,VALID,0,VALID,75.1211,VALID,1023.91,VALID,27.3865,VALID,19,VALID,0,
2016-05-19, 10:30:04,VALID,918.061,VALID,0,VALID,72.2852,VALID,963.962,VALID,27.6601,VALID,14,VALID,0,
2016-05-19, 10:31:04,VALID,918.046,VALID,0,VALID,72.613,VALID,1017.9,VALID,27.9511,VALID,26,VALID,0.770703,
2016-05-19, 10:32:04,VALID,918.036,VALID,0,VALID,69.6628,VALID,1076.02,VALID,28.305,VALID,269,VALID,0.473047,
2016-05-19, 10:33:04,VALID,918.023,VALID,0,VALID,69.4265,VALID,853.942,VALID,28.4809,VALID,132,VALID,0.0078125,
2016-05-19, 10:34:04,VALID,918.019,VALID,0,VALID,66.5905,VALID,390.226,VALID,28.5005,VALID,246,VALID,1.42891,
2016-05-19, 10:35:04,VALID,918.039,VALID,0,VALID,71.9879,VALID,331.241,VALID,28.3029,VALID,308,VALID,0.0542969,
2016-05-19, 10:36:04,VALID,918.057,VALID,0,VALID,69.3273,VALID,265.38,VALID,28.2638,VALID,1,VALID,0,
2016-05-19, 10:37:04,VALID,918.061,VALID,0,VALID,71.2789,VALID,230.784,VALID,28.127,VALID,30,VALID,0.000390625,
2016-05-19, 10:38:04,VALID,918.075,VALID,0,VALID,70.509,VALID,223.585,VALID,28.0879,VALID,30,VALID,0,
2016-05-19, 10:39:04,VALID,918.058,VALID,0,VALID,71.9422,VALID,231.536,VALID,27.7948,VALID,30,VALID,0,
2016-05-19, 10:40:04,VALID,918.029,VALID,0,VALID,73.2458,VALID,247.437,VALID,27.7557,VALID,13,VALID,0,
2016-05-19, 10:41:04,VALID,918.034,VALID,0,VALID,72.674,VALID,272.686,VALID,27.658,VALID,249,VALID,0.183203,
2016-05-19, 10:42:04,VALID,918,VALID,0,VALID,73.4974,VALID,305.24,VALID,27.441,VALID,271,VALID,0,
2016-05-19, 10:43:04,VALID,917.973,VALID,0,VALID,74.557,VALID,294.711,VALID,27.5017,VALID,46,VALID,0,
2016-05-19, 10:44:04,VALID,917.985,VALID,0,VALID,74.6637,VALID,305.992,VALID,27.4605,VALID,79,VALID,0,
2016-05-19, 10:45:04,VALID,917.982,VALID,0,VALID,74.2673,VALID,343.167,VALID,27.4431,VALID,137,VALID,0,
2016-05-19, 10:46:04,VALID,917.983,VALID,0,VALID,74.8391,VALID,736.509,VALID,27.4235,VALID,139,VALID,0,
2016-05-19, 10:47:04,VALID,917.988,VALID,0,VALID,72.1175,VALID,913.787,VALID,27.4626,VALID,312,VALID,0,
2016-05-19, 10:48:04,VALID,918.013,VALID,0,VALID,71.6144,VALID,1040.57,VALID,27.5017,VALID,260,VALID,1.08438,
2016-05-19, 10:49:04,VALID,918.027,VALID,0,VALID,73.7261,VALID,485.097,VALID,27.3454,VALID,243,VALID,0,
2016-05-19, 10:50:04,VALID,918.037,VALID,0,VALID,72.8722,VALID,324.687,VALID,27.3844,VALID,243,VALID,0,
2016-05-19, 10:51:04,VALID,918.039,VALID,0,VALID,73.9776,VALID,271.826,VALID,27.4626,VALID,206,VALID,0.291016,
2016-05-19, 10:52:04,VALID,918.037,VALID,0,VALID,74.3969,VALID,255.173,VALID,27.3824,VALID,221,VALID,0.426953,
2016-05-19, 10:53:04,VALID,918.05,VALID,0,VALID,75.3803,VALID,275.264,VALID,27.3844,VALID,215,VALID,0,
2016-05-19, 10:54:04,VALID,918.06,VALID,0,VALID,76.5925,VALID,303.306,VALID,27.4431,VALID,2,VALID,0.325781,
2016-05-19, 10:55:04,VALID,918.059,VALID,0,VALID,76.623,VALID,288.372,VALID,27.4626,VALID,6,VALID,0,
2016-05-19, 10:56:04,VALID,918.052,VALID,0,VALID,75.4642,VALID,283.107,VALID,27.3258,VALID,221,VALID,0,
2016-05-19, 10:57:04,VALID,918.027,VALID,0,VALID,76.4857,VALID,277.306,VALID,27.3063,VALID,50,VALID,0,
2016-05-19, 10:58:04,VALID,918.065,VALID,0,VALID,76.6001,VALID,295.678,VALID,27.3258,VALID,51,VALID,0,
2016-05-19, 10:59:04,VALID,918.026,VALID,0,VALID,77.0422,VALID,367.771,VALID,27.3824,VALID,58,VALID,0,
2016-05-19, 11:00:04,VALID,918.013,VALID,0,VALID,74.3054,VALID,260.652,VALID,27.4821,VALID,9,VALID,0.317187,
2016-05-19, 11:01:04,VALID,917.978,VALID,0,VALID,75.5404,VALID,255.28,VALID,27.404,VALID,45,VALID,0.474609,
2016-05-19, 11:02:04,VALID,917.985,VALID,0,VALID,75.4413,VALID,269.355,VALID,27.3063,VALID,290,VALID,0,
2016-05-19, 11:03:04,VALID,918.011,VALID,0,VALID,75.4947,VALID,305.025,VALID,27.2477,VALID,268,VALID,0.00117188,
2016-05-19, 11:04:04,VALID,917.99,VALID,0,VALID,76.0131,VALID,402.475,VALID,27.1109,VALID,206,VALID,0,
2016-05-19, 11:05:04,VALID,918.013,VALID,0,VALID,76.2799,VALID,646.581,VALID,26.9937,VALID,154,VALID,0,
2016-05-19, 11:06:04,VALID,917.989,VALID,0,VALID,77.736,VALID,543.867,VALID,27.0914,VALID,101,VALID,0,
2016-05-19, 11:07:04,VALID,917.991,VALID,0,VALID,76.0969,VALID,498.849,VALID,27.3063,VALID,36,VALID,0,
2016-05-19, 11:08:04,VALID,917.955,VALID,0,VALID,75.731,VALID,423.64,VALID,27.5798,VALID,27,VALID,0,
2016-05-19, 11:09:04,VALID,917.959,VALID,0,VALID,73.5355,VALID,330.167,VALID,27.7752,VALID,325,VALID,0,
2016-05-19, 11:10:04,VALID,917.952,VALID,0,VALID,74.7476,VALID,339.299,VALID,27.8339,VALID,49,VALID,0,
2016-05-19, 11:11:04,VALID,917.948,VALID,0,VALID,73.8633,VALID,372.821,VALID,27.8513,VALID,48,VALID,0.189063,
2016-05-19, 11:12:04,VALID,917.959,VALID,0,VALID,73.6956,VALID,683.648,VALID,27.7557,VALID,45,VALID,0.00429688,
2016-05-19, 11:13:04,VALID,917.936,VALID,0,VALID,74.7857,VALID,648.622,VALID,27.8143,VALID,22,VALID,0.0234375,
2016-05-19, 11:14:04,VALID,917.933,VALID,0,VALID,71.4009,VALID,1128.24,VALID,27.7166,VALID,291,VALID,0.0820313,
2016-05-19, 11:15:04,VALID,917.933,VALID,0,VALID,74.8086,VALID,1014.24,VALID,27.7557,VALID,28,VALID,0.43125,
2016-05-19, 11:16:04,VALID,917.866,VALID,0,VALID,72.5673,VALID,958.16,VALID,27.8925,VALID,248,VALID,0.0417969,
2016-05-19, 11:17:04,VALID,917.906,VALID,0,VALID,73.4211,VALID,665.276,VALID,27.9316,VALID,293,VALID,0,
2016-05-19, 11:18:04,VALID,917.841,VALID,0,VALID,72.9713,VALID,426.326,VALID,27.949,VALID,29,VALID,1.15156,
2016-05-19, 11:19:04,VALID,917.815,VALID,0,VALID,74.3893,VALID,242.602,VALID,27.9706,VALID,26,VALID,1.1832,
2016-05-19, 11:20:04,VALID,917.83,VALID,0,VALID,72.1099,VALID,241.528,VALID,27.7948,VALID,44,VALID,1.52695,
2016-05-19, 11:21:04,VALID,917.815,VALID,0,VALID,72.0946,VALID,274.512,VALID,27.4431,VALID,231,VALID,1.07969,
2016-05-19, 11:22:04,VALID,917.815,VALID,0,VALID,72.9332,VALID,356.06,VALID,27.0719,VALID,258,VALID,0.0191406,
2016-05-19, 11:23:04,VALID,917.824,VALID,0,VALID,75.2202,VALID,342.952,VALID,26.9156,VALID,12,VALID,0,
2016-05-19, 11:24:04,VALID,917.807,VALID,0,VALID,76.2799,VALID,248.404,VALID,26.7984,VALID,198,VALID,0.158984,
2016-05-19, 11:25:04,VALID,917.83,VALID,0,VALID,77.8579,VALID,254.313,VALID,26.8374,VALID,95,VALID,0.00195313,
2016-05-19, 11:26:04,VALID,917.75,VALID,0,VALID,76.6992,VALID,249.801,VALID,26.9546,VALID,126,VALID,0,
2016-05-19, 11:27:04,VALID,917.81,VALID,0,VALID,75.6014,VALID,245.288,VALID,27.0523,VALID,46,VALID,0.0414063,
2016-05-19, 11:28:04,VALID,917.773,VALID,0,VALID,77.1566,VALID,209.403,VALID,27.0523,VALID,2,VALID,0.287109,
2016-05-19, 11:29:04,VALID,917.775,VALID,0,VALID,75.6319,VALID,168.36,VALID,26.9937,VALID,51,VALID,0.186328,
2016-05-19, 11:30:04,VALID,917.77,VALID,0,VALID,75.914,VALID,146.657,VALID,26.8765,VALID,68,VALID,0.015625,
2016-05-19, 11:31:04,VALID,917.793,VALID,0,VALID,77.2176,VALID,133.549,VALID,26.7788,VALID,91,VALID,0,
2016-05-19, 11:32:04,VALID,917.781,VALID,0,VALID,76.1884,VALID,131.723,VALID,26.7398,VALID,40,VALID,0.00234375,
2016-05-19, 11:33:04,VALID,917.772,VALID,0,VALID,76.8745,VALID,146.442,VALID,26.5444,VALID,94,VALID,0,
2016-05-19, 11:34:04,VALID,917.753,VALID,0,VALID,77.7665,VALID,153.211,VALID,26.4858,VALID,94,VALID,0,
2016-05-19, 11:35:04,VALID,917.76,VALID,0,VALID,78.7575,VALID,147.194,VALID,26.4272,VALID,184,VALID,0.165234,
2016-05-19, 11:36:04,VALID,917.744,VALID,0,VALID,78.5059,VALID,158.368,VALID,26.2319,VALID,218,VALID,0,
2016-05-19, 11:37:04,VALID,917.721,VALID,0,VALID,79.253,VALID,152.781,VALID,26.0561,VALID,215,VALID,0.492188,
2016-05-19, 11:38:04,VALID,917.69,VALID,0,VALID,81.5782,VALID,153.641,VALID,25.9194,VALID,195,VALID,0.410156,
2016-05-19, 11:39:04,VALID,917.726,VALID,0,VALID,81.5019,VALID,136.987,VALID,25.7847,VALID,242,VALID,0.891797,
2016-05-19, 11:40:04,VALID,917.659,VALID,0,VALID,80.8235,VALID,135.161,VALID,25.5113,VALID,256,VALID,1.69375,
2016-05-19, 11:41:04,VALID,917.677,VALID,0,VALID,85.9388,VALID,149.343,VALID,25.275,VALID,235,VALID,0.507422,
2016-05-19, 11:42:04,VALID,917.649,VALID,0,VALID,87.715,VALID,163.311,VALID,25.2379,VALID,222,VALID,0,
2016-05-19, 11:43:04,VALID,917.617,VALID,0,VALID,90.124,VALID,178.245,VALID,25.1793,VALID,259,VALID,1.64102,
2016-05-19, 11:44:04,VALID,917.582,VALID,0,VALID,98.06,VALID,188.882,VALID,25.0017,VALID,303,VALID,0.507422,
2016-05-19, 11:45:04,VALID,917.52,VALID,0,VALID,99.7372,VALID,194.791,VALID,24.9626,VALID,244,VALID,0.194141,
2016-05-19, 11:46:04,VALID,917.537,VALID,0,VALID,101.75,VALID,193.716,VALID,25.0231,VALID,229,VALID,0,
2016-05-19, 11:47:04,VALID,917.502,VALID,0,VALID,102.649,VALID,169.112,VALID,25.1793,VALID,229,VALID,0,
2016-05-19, 11:48:04,VALID,917.504,VALID,0,VALID,103.404,VALID,186.84,VALID,25.3355,VALID,269,VALID,0,
2016-05-19, 11:49:04,VALID,917.476,VALID,0,VALID,97.1604,VALID,203.064,VALID,25.3336,VALID,44,VALID,1.30625,
2016-05-19, 11:50:04,VALID,917.456,VALID,0,VALID,101.795,VALID,232.503,VALID,25.355,VALID,50,VALID,1.03984,
2016-05-19, 11:51:04,VALID,917.433,VALID,0,VALID,99.4627,VALID,301.265,VALID,25.4546,VALID,217,VALID,0.454688,
2016-05-19, 11:52:04,VALID,917.444,VALID,0,VALID,91.4048,VALID,329.952,VALID,25.4546,VALID,204,VALID,0,
2016-05-19, 11:53:04,VALID,917.412,VALID,0,VALID,92.8456,VALID,406.987,VALID,25.5503,VALID,204,VALID,0,
2016-05-19, 11:54:04,VALID,917.421,VALID,0,VALID,85.3289,VALID,372.713,VALID,25.728,VALID,204,VALID,0,
2016-05-19, 11:55:04,VALID,917.4,VALID,0,VALID,86.2894,VALID,308.249,VALID,25.7651,VALID,189,VALID,0,
2016-05-19, 11:56:04,VALID,917.379,VALID,0,VALID,85.672,VALID,331.456,VALID,25.8804,VALID,37,VALID,0,
2016-05-19, 11:57:04,VALID,917.343,VALID,0,VALID,84.5284,VALID,351.118,VALID,26.0561,VALID,28,VALID,0.323047,
2016-05-19, 11:58:04,VALID,917.331,VALID,0,VALID,81.5401,VALID,340.374,VALID,26.1753,VALID,269,VALID,0,
2016-05-19, 11:59:04,VALID,917.297,VALID,0,VALID,81.0903,VALID,380.127,VALID,26.0972,VALID,26,VALID,1.32031,
2016-05-19, 12:00:04,VALID,917.278,VALID,0,VALID,83.5221,VALID,453.939,VALID,26.0171,VALID,35,VALID,0,
2016-05-19, 12:01:04,VALID,917.254,VALID,0,VALID,82.9046,VALID,743.815,VALID,26.1558,VALID,5,VALID,0,
2016-05-19, 12:02:04,VALID,917.247,VALID,0,VALID,84.2159,VALID,853.62,VALID,26.3296,VALID,13,VALID,0.065625,
2016-05-19, 12:03:04,VALID,917.251,VALID,0,VALID,80.0535,VALID,634.225,VALID,26.6441,VALID,344,VALID,0,
2016-05-19, 12:04:04,VALID,917.198,VALID,0,VALID,80.0764,VALID,673.871,VALID,26.896,VALID,345,VALID,0,
2016-05-19, 12:05:04,VALID,917.224,VALID,0,VALID,77.1185,VALID,583.835,VALID,27.1695,VALID,28,VALID,0,
2016-05-19, 12:06:04,VALID,917.2,VALID,0,VALID,76.6535,VALID,693.747,VALID,27.3084,VALID,17,VALID,0.00742187,
2016-05-19, 12:07:04,VALID,917.183,VALID,0,VALID,76.4476,VALID,383.243,VALID,27.367,VALID,27,VALID,1.1082,
2016-05-19, 12:08:04,VALID,917.172,VALID,0,VALID,75.5862,VALID,846.421,VALID,27.4061,VALID,12,VALID,0.315234,